Location: Oshawa
(43.9000°N, 78.8670°W)
Time: 06:14:14
(UTC-04:00)

Thor Agena Rocket - Visible Passes

Search period start: 16 April 2014 00:00
Search period end: 26 April 2014 00:00
Orbit: 762 x 809 km, 99.0° (Epoch: 14 April)

Date Brightness Start Highest point End Pass type
(mag) Time Alt. Az. Time Alt. Az. Time Alt. Az.
16 Apr 5.4 01:04:33 26° NNE 01:04:33 26° NNE 01:07:32 10° N visible
16 Apr 5.5 02:45:10 20° NW 02:45:10 20° NW 02:47:01 10° NNW visible
17 Apr 5.7 00:33:13 17° NE 00:33:13 17° NE 00:35:56 10° NNE visible
17 Apr 5.1 02:13:51 30° NNW 02:13:51 30° NNW 02:16:31 10° NNW visible
18 Apr 4.9 01:42:31 36° N 01:42:31 36° N 01:45:41 10° N visible
18 Apr 5.9 03:23:08 12° NW 03:23:08 12° NW 03:23:37 10° NW visible
19 Apr 5.1 01:11:12 30° NE 01:11:12 30° NE 01:14:34 10° N visible
19 Apr 5.4 02:51:49 21° NW 02:51:49 21° NW 02:53:50 10° NNW visible
20 Apr 5.6 00:39:52 20° NE 00:39:52 20° NE 00:43:05 10° NNE visible
20 Apr 4.9 02:20:30 32° NW 02:20:30 32° NW 02:23:24 10° NNW visible
21 Apr 6.0 00:08:33 11° ENE 00:08:59 11° NE 00:10:34 10° NE visible
21 Apr 4.7 01:49:10 42° N 01:49:10 42° N 01:52:38 10° N visible
21 Apr 5.9 03:29:48 11° WNW 03:29:48 11° WNW 03:30:10 10° NW visible
22 Apr 4.9 01:17:51 35° NE 01:17:51 35° NE 01:21:35 10° N visible
22 Apr 5.4 02:58:28 20° NW 02:58:28 20° NW 03:00:37 10° NW visible
23 Apr 5.4 00:46:32 22° NE 00:46:32 22° NE 00:50:11 10° NNE visible
23 Apr 4.8 02:27:09 34° NW 02:27:09 34° NW 02:30:17 10° NNW visible
24 Apr 5.9 00:15:13 13° ENE 00:15:47 13° NE 00:18:03 10° NNE visible
24 Apr 4.4 01:55:50 47° N 01:55:50 47° N 01:59:34 10° NNW visible
24 Apr 5.9 03:36:27 10° WNW 03:36:27 10° WNW 03:36:36 10° WNW visible
25 Apr 4.6 01:24:31 40° NE 01:24:31 40° NE 01:28:34 10° N visible
25 Apr 5.4 03:05:08 20° WNW 03:05:08 20° WNW 03:07:22 10° NW visible
